Satellite-Ground Cal/Val Site Overpasses Predictions

Prediction of Satellite NPP Overpassing Cal/Val Site: Antarctic Dome C

Ground Cal/Val Site Location: Latitude: -75.10, Longitude: 123.35; Satellite-Ground Site NADIR distance within 100 km.

Table of predicted overpasses for the next 14.0 days since TLE Epoch: 5/13/2012
Interval Starting Time Ending Time Minimum Distance Time Minimum Distance (km)
1 05/14/2012 07:42:57 05/14/2012 07:43:16 05/14/2012 07:43:07 74.09
2 05/15/2012 07:24:03 05/15/2012 07:24:31 05/15/2012 07:24:17 33.83
3 05/17/2012 15:06:28 05/17/2012 15:06:35 05/17/2012 15:06:32 95.96
4 05/18/2012 14:47:26 05/18/2012 14:47:55 05/18/2012 14:47:40 15.46
5 05/20/2012 07:30:13 05/20/2012 07:30:43 05/20/2012 07:30:28 2.70
6 05/23/2012 14:53:38 05/23/2012 14:54:07 05/23/2012 14:53:52 20.75
7 05/24/2012 14:34:54 05/24/2012 14:35:09 05/24/2012 14:35:01 86.40
8 05/25/2012 07:36:26 05/25/2012 07:36:53 05/25/2012 07:36:40 38.27


NCC Satellite Cal/Val Overpasses Prediction Service
